{"data":{"norad_id":49411,"intl_designator":"2021-104D","name":"STARLINK-3162","alt_names":[],"object_type":"PAYLOAD","status":"ACTIVE","operator":null,"country":"US","launch_date":"2021-11-13","launch_site_code":"AFETR","launch_vehicle":null,"mission":null,"orbit_class":"UNKNOWN","rcs_meters":null,"size_class":null,"mass_kg":null,"dimensions":null,"purposes":["comms"],"wikipedia_slug":null,"has_3d_model":false,"image_url":null,"decayed_at":null,"tle_current":{"epoch":"2026-05-24T22:55:26.109984Z","epoch_age_seconds":89412,"freshness":"FRESH","line1":"1 49411U 21104D   26144.95516331  .00002352  00000+0  16586-3 0  9997","line2":"2 49411  53.2136 236.7497 0000638 145.0915 215.0119 15.08831258250288","mean_motion":15.08831258,"eccentricity":6.38e-5,"inclination_deg":53.2136,"raan_deg":236.7497,"arg_perigee_deg":145.0915,"mean_anomaly_deg":215.0119,"bstar":0.00016586,"rev_number":25028,"period_min":95.438107632312,"perigee_km":539.32874741622,"apogee_km":540.21147236344,"semimajor_km":6917.9071098898,"source":"CELESTRAK","updated_at":"2026-05-25T13:38:16.794897Z"}}}